Location: Unspecified
(34.4950°S, 58.5160°W)
Time: 08:26:38
(UTC+00:00)

ACS3 Solar Sail - Pass Details

Date: 21 February 2026
Orbit: 882 x 976 km, 97.2° (Epoch: 14 March)

Event Time Altitude Azimuth Distance (km) Brightness Sun altitude
Exits shadow 04:35:30 20° 161° (SSE) 2,053 3.9 -44.5°
Drops below altitude 10° 04:37:31 10° 173° (S) 2,706 4.7 -44.4°
Sets 04:40:12 0° 181° (S) 3,674 5.6 -44.3°
